Preview of NWS' New Version of Forecast
This preview is not operational and should not be used for support decisions.

Regional Weather Roundup (RWR)

Issued by National Weather Service (NWS)

                            
000
NZUS52 KFFC 200910
RWROBS
WEATHER ROUNDUP FOR GEORGIA
NATIONAL WEATHER SERVICE PEACHTREE CITY GA
400 AM EST WED FEB 20 2019

NOTE: "FAIR" INDICATES FEW OR NO CLOUDS BELOW 12,000 FEET WITH NO
SIGNIFICANT WEATHER AND/OR OBSTRUCTIONS TO VISIBILITY. 

* = USE WITH CAUTION. THE STATIONS MARKED WITH AN ASTERISK MAY NOT
REPORT WEATHER SUCH AS PRECIPITATION, FOG, OR THUNDER AND ARE NOT 
QUALITY CONTROLLED BY NWS.

THE REMARK "TC" DENOTES TEMPERATURE READING IN DEGREES CELSIUS.

GAZ001>058-201000-
NORTH GEORGIA
  
CITY           SKY/WX    TMP DP  RH WIND       PRES   REMARKS
ATLANTA        DRIZZLE   40  38  93 E15G21    30.22F FOG     WCI  32  
ATHENS         CLOUDY    37  36  96 NE10      30.29F WCI  30          
CHAMBLEE       CLOUDY    37  36  96 VRB7      30.24F FOG     WCI  32  
PEACHTREE CITY CLOUDY    42  39  89 E10       30.22F FOG     WCI  36  
ROME           CLOUDY    41  37  86 SE10G20   30.18F WCI  35          
WEST ATLANTA   CLOUDY    40  39  97 E13       30.24S WCI  32          
GAINESVILLE    RAIN      35  35 100 E13G21    30.28F FOG     WCI  26  
CARTERSVILLE   CLOUDY    39  37  92 E13G24    30.21F FOG     WCI  31  
BLAIRSVILLE    LGT RAIN  42  38  88 E17G28    30.21R WCI  33          
DECATUR        CLOUDY    46  44  93 SE22G29   29.98F                  
CLEMSON        LGT RAIN  35  35 100 NE9       30.34F FOG     WCI  28  
GREENVILLE     LGT RAIN  36  33  89 NE10      30.34F WCI  28          
FLORENCE       NOT AVBL                                               
CHARLESTON     RAIN      47  43  86 E13       30.28F FOG              
MYRTLE BEACH   CLOUDY    43  34  70 NE12G18   30.35F WCI  37          
FAYETTEVILLE   CLOUDY    37  32  82 NE8       30.39F WCI  31          
WILMINGTON     CLOUDY    38  31  76 NE13      30.41F WCI  30          
RALEIGH        CLOUDY    34  31  88 VRB6      30.46F WCI  29          
DALTON         CLOUDY    45  39  81 S9G21     30.16F WCI  40          
LAWRENCEVILLE  LGT RAIN  37  36  96 E17       30.25F FOG     WCI  27  
MARIETTA       LGT RAIN  37  36  93 E14       30.22F WCI  29          
KENNESAW       RAIN      38  36  92 E13G23    30.24F WCI  30          
WINDER         DRIZZLE   37  36  93 E7        30.30F WCI  32          
CANTON         DRIZZLE  N/A N/A N/A E10G21    30.25S                  
TOCCOA         DRIZZLE   36  35  95 NE9       30.32F WCI  29          
CORNELIA       LGT RAIN  34  33  98 E13       30.27F WCI  25          
JASPER         CLOUDY    37  36  94 S22G29    30.23F WCI  26          
CHARLOTTE      LGT RAIN  37  34  89 NE8       30.38F FOG     WCI  31  
$$

GAZ059>098-102>109-201000-
OTHER STATIONS
  
CITY           SKY/WX    TMP DP  RH WIND       PRES   REMARKS
AUGUSTA-BUSH   CLOUDY    46  37  71 NE6       30.29F                  
AUGUSTA-DANIEL CLOUDY    45  35  68 NE9       30.28F                  
COLUMBUS       CLOUDY    44  42  93 E10       30.18F WCI  39          
MACON          CLOUDY    44  42  93 E13       30.23F WCI  38          
ROBINS AFB     CLOUDY    44  42  93 E13       30.23F WCI  38          
GREENSBORO     CLOUDY    41  41 100 CALM      30.24F                  
THOMSON        CLOUDY    41  37  86 SE6       30.33F WCI  38          
SANDERSVILLE   NOT AVBL                                               
THOMASTON      CLOUDY    43  37  81 E7        30.24S FOG     WCI  39  
BUTLER         NOT AVBL                                               
LAGRANGE       CLOUDY    44  44  98 E6        30.18F FOG              
MILLEDGEVILLE  CLOUDY    45  41  87 E7        30.26F                  
CARROLLTON     LGT RAIN  39  38  97 SE9       30.22S WCI  33          
AMERICUS       CLOUDY    48  43  81 E9        30.20F                  
CORDELE        CLOUDY    46  44  91 E7        30.20F                  
SAVANNAH       CLOUDY    48  47  96 NE7       30.23F FOG              
NEW BERN       LGT RAIN  38  35  89 NE13      30.47F WCI  30          
HUNTSVILLE     CLOUDY    47  45  93 SE20      29.98S                  
$$

GAZ099>101-110>166-201000-
OTHER STATIONS
  
CITY           SKY/WX    TMP DP  RH WIND       PRES   REMARKS
VALDOSTA       CLOUDY    51  49  92 E6        30.16F                  
ALMA           CLOUDY    50  46  86 VRB5      30.19F                  
ST SIMONS      CLOUDY    57  54  89 N16G25    30.16F                  
FT STEWART     LGT RAIN  48  47  96 NE7       30.20F                  
ALBANY         CLOUDY    51  46  83 E8        30.18F                  
HUNTER AFB     CLOUDY    52  48  87 NE9       30.19F                  
MOODY AFB      CLOUDY    50  50 100 NE7       30.14F                  
BRUNSWICK      CLOUDY    54  54 100 NE16G23   30.19F                  
BAINBRIDGE       N/A     54  50  87 MISG      30.13F                  
MOULTRIE       CLOUDY    50  46  87 E6        30.16F                  
VIDALIA        CLOUDY    46  41  81 NE8       30.22F                  
WAYCROSS       CLOUDY    52  47  84 E8G16     30.17F                  
DOUGLAS        CLOUDY    49  47  95 E10       30.20F                  
TIFTON         CLOUDY   N/A N/A N/A E10       30.17F                  
HAZELHURST     CLOUDY    47  44  88 E5        30.19F                  
COLUMBIA       CLOUDY    42  39  89 NE8       30.32F WCI  37          
RALEIGH        CLOUDY    34  31  88 VRB6      30.46F WCI  29          
GREENSBORO     LGT RAIN  33  33 100 E9        30.39F FOG     WCI  25  
HICKORY        LGT RAIN  33  33 100 NE5       30.38F FOG     WCI  29  
ASHEVILLE      SLEET     33  31  92 S8        30.31F FOG     WCI  26  
KNOXVILLE      CLOUDY    43  41  93 N3        30.06F                  
NASHVILLE      CLOUDY    47  43  86 S13       29.91S                  
JACKSONMS      CLOUDY    61  60  97 S12       29.84F THUNDER FOG      
TUPELO         NOT AVBL                                               
GREENWOOD      TSTM      60  58  92 VRB6      29.80R FOG              
MERIDIAN       CLOUDY    61  58  90 SE10      29.91F                  
NEW ORLEANS    FOG       71  71 100 S12       29.90F VSB 3/4          
$$